When you browse on this site, cookies collect data to enhance your experience and personalize the content and advertising you see.
Visit our Privacy Policy to learn more. By continuing to use the site, you agree to this use of cookies and data.
  • In Spain
  • List of Countries
  • For 7 days
  • Water Temperature
  • Satellite Maps
  • Weather Map
  • Weather Widgets
  • user-avatar
    Login

    Hourly Weather Igls

    Today, 18 January, Friday

    Time Temperature Precipitation Wind Pressure Humidity
    00:00 -2°C° 0.7 mm 2 mps 678 mmHg 96%
    01:00 -2°C° 0 mm 2 mps 679 mmHg 95%
    02:00 -3°C° 0.2 mm 2 mps 679 mmHg 94%
    03:00 -4°C° 0.2 mm 2 mps 679 mmHg 93%
    04:00 -2°C° 0.2 mm 1 mps 679 mmHg 91%
    05:00 -3°C° 0.1 mm 1 mps 679 mmHg 92%
    06:00 -4°C° 0.1 mm 1 mps 680 mmHg 93%
    07:00 -3°C° 0 mm 1 mps 680 mmHg 92%
    08:00 -5°C° 0.1 mm 2 mps 681 mmHg 92%
    09:00 -4°C° 0.1 mm 2 mps 681 mmHg 92%
    10:00 -4°C° 0.1 mm 2 mps 682 mmHg 91%
    11:00 -4°C° 0 mm 2 mps 682 mmHg 89%
    12:00 -3°C° 0 mm 2 mps 682 mmHg 86%
    13:00 -1°C° 0 mm 1 mps 682 mmHg 82%
    14:00 -1°C° 0 mm 1 mps 682 mmHg 84%
    15:00 -2°C° 0 mm 1 mps 682 mmHg 87%
    16:00 -3°C° 0 mm 1 mps 682 mmHg 89%
    17:00 -6°C° 0 mm 1 mps 682 mmHg 89%
    18:00 -8°C° 0 mm 1 mps 682 mmHg 89%
    19:00 -10°C° 0 mm 1 mps 682 mmHg 89%
    20:00 -10°C° 0 mm 1 mps 682 mmHg 85%
    21:00 -12°C° 0 mm 2 mps 682 mmHg 81%
    22:00 -10°C° 0 mm 2 mps 682 mmHg 77%
    23:00 -10°C° 0 mm 2 mps 682 mmHg 75%

    Tomorrow, 19 January, Saturday

    Time Temperature Precipitation Wind Pressure Humidity
    00:00 -10°C° 0 mm 2 mps 682 mmHg 72%
    01:00 -10°C° 0 mm 2 mps 682 mmHg 70%
    02:00 -9°C° 0 mm 2 mps 682 mmHg 71%
    03:00 -9°C° 0 mm 2 mps 682 mmHg 72%
    04:00 -8°C° 0 mm 2 mps 682 mmHg 73%
    05:00 -8°C° 0 mm 2 mps 681 mmHg 74%
    06:00 -8°C° 0 mm 2 mps 681 mmHg 76%
    07:00 -7°C° 0 mm 2 mps 681 mmHg 77%
    08:00 -6°C° 0 mm 2 mps 681 mmHg 78%
    09:00 -5°C° 0 mm 2 mps 682 mmHg 80%
    10:00 -3°C° 0 mm 2 mps 682 mmHg 81%
    11:00 0°C° 0 mm 1 mps 681 mmHg 80%
    12:00 +1°C° 0 mm 1 mps 681 mmHg 79%
    13:00 +3°C° 0 mm 1 mps 681 mmHg 78%
    14:00 +2°C° 0 mm 1 mps 681 mmHg 80%
    15:00 0°C° 0 mm 0 mps 680 mmHg 82%
    16:00 -1°C° 0 mm 0 mps 680 mmHg 85%
    17:00 -1°C° 0 mm 1 mps 680 mmHg 84%
    18:00 -2°C° 0 mm 1 mps 680 mmHg 83%
    19:00 -3°C° 0 mm 1 mps 680 mmHg 82%
    20:00 -5°C° 0 mm 2 mps 680 mmHg 81%
    21:00 -5°C° 0 mm 2 mps 680 mmHg 80%
    22:00 -6°C° 0 mm 2 mps 680 mmHg 79%
    23:00 -6°C° 0 mm 2 mps 679 mmHg 78%

    Day after tomorrow, 20 January, Sunday

    Time Temperature Precipitation Wind Pressure Humidity
    00:00 -7°C° 0 mm 2 mps 679 mmHg 78%
    01:00 -7°C° 0 mm 2 mps 679 mmHg 77%
    02:00 -8°C° 0 mm 2 mps 679 mmHg 77%
    03:00 -8°C° 0 mm 2 mps 679 mmHg 77%
    04:00 -8°C° 0 mm 2 mps 679 mmHg 77%
    05:00 -8°C° 0 mm 2 mps 679 mmHg 77%
    06:00 -8°C° 0 mm 2 mps 679 mmHg 77%
    07:00 -8°C° 0 mm 2 mps 679 mmHg 77%
    08:00 -6°C° 0 mm 1 mps 679 mmHg 78%
    09:00 -3°C° 0 mm 1 mps 680 mmHg 79%
    10:00 -2°C° 0 mm 1 mps 680 mmHg 81%
    11:00 0°C° 0 mm 1 mps 680 mmHg 77%
    12:00 +1°C° 0 mm 1 mps 680 mmHg 74%
    13:00 +2°C° 0 mm 1 mps 680 mmHg 71%
    14:00 +2°C° 0 mm 1 mps 680 mmHg 77%
    15:00 +1°C° 0 mm 1 mps 680 mmHg 82%
    16:00 0°C° 0 mm 1 mps 680 mmHg 88%
    17:00 -1°C° 0 mm 1 mps 680 mmHg 89%
    18:00 -3°C° 0 mm 1 mps 680 mmHg 89%
    19:00 -4°C° 0 mm 1 mps 681 mmHg 90%
    20:00 -4°C° 0 mm 1 mps 681 mmHg 88%
    21:00 -4°C° 0 mm 1 mps 681 mmHg 87%
    22:00 -6°C° 0 mm 1 mps 682 mmHg 85%
    23:00 -6°C° 0 mm 1 mps 682 mmHg 84%

    21 January, Monday

    Time Temperature Precipitation Wind Pressure Humidity
    00:00 -6°C° 0 mm 1 mps 682 mmHg 83%
    01:00 -6°C° 0 mm 1 mps 682 mmHg 82%
    02:00 -7°C° 0 mm 1 mps 682 mmHg 83%
    03:00 -7°C° 0 mm 1 mps 682 mmHg 83%
    04:00 -7°C° 0 mm 1 mps 682 mmHg 83%
    05:00 -7°C° 0 mm 1 mps 683 mmHg 84%
    06:00 -7°C° 0 mm 1 mps 683 mmHg 84%
    07:00 -8°C° 0 mm 1 mps 683 mmHg 85%
    08:00 -6°C° 0 mm 1 mps 683 mmHg 86%
    09:00 -4°C° 0 mm 1 mps 684 mmHg 87%
    10:00 -2°C° 0 mm 1 mps 684 mmHg 87%
    11:00 -1°C° 0 mm 1 mps 684 mmHg 87%
    12:00 0°C° 0 mm 1 mps 684 mmHg 87%
    13:00 +1°C° 0 mm 1 mps 684 mmHg 87%
    14:00 0°C° 0 mm 1 mps 684 mmHg 88%
    15:00 0°C° 0 mm 1 mps 684 mmHg 89%
    16:00 0°C° 0 mm 1 mps 683 mmHg 91%
    17:00 -2°C° 0 mm 1 mps 683 mmHg 92%
    18:00 -4°C° 0 mm 1 mps 683 mmHg 94%
    19:00 -7°C° 0 mm 0 mps 683 mmHg 95%
    20:00 -7°C° 0 mm 1 mps 683 mmHg 93%
    21:00 -8°C° 0 mm 1 mps 683 mmHg 91%
    22:00 -9°C° 0 mm 1 mps 683 mmHg 89%
    23:00 -9°C° 0 mm 1 mps 683 mmHg 85%

    22 January, Tuesday

    Time Temperature Precipitation Wind Pressure Humidity
    00:00 -9°C° 0 mm 1 mps 683 mmHg 82%
    01:00 -12°C° 0 mm 2 mps 682 mmHg 79%
    02:00 -12°C° 0 mm 2 mps 682 mmHg 76%
    03:00 -12°C° 0 mm 2 mps 681 mmHg 73%
    04:00 -12°C° 0 mm 2 mps 681 mmHg 70%
    05:00 -12°C° 0 mm 2 mps 680 mmHg 67%
    06:00 -12°C° 0 mm 2 mps 680 mmHg 65%
    07:00 -12°C° 0 mm 2 mps 679 mmHg 63%
    08:00 -9°C° 0 mm 2 mps 679 mmHg 65%
    09:00 -7°C° 0 mm 2 mps 679 mmHg 67%
    10:00 -5°C° 0 mm 2 mps 679 mmHg 69%
    11:00 -2°C° 0 mm 1 mps 678 mmHg 67%
    12:00 0°C° 0 mm 1 mps 677 mmHg 66%
    13:00 +2°C° 0 mm 1 mps 676 mmHg 64%
    14:00 +1°C° 0 mm 1 mps 675 mmHg 68%
    15:00 0°C° 0 mm 1 mps 674 mmHg 72%
    16:00 -1°C° 0 mm 1 mps 673 mmHg 76%
    17:00 -3°C° 0 mm 1 mps 673 mmHg 74%
    18:00 -7°C° 0 mm 2 mps 672 mmHg 73%
    19:00 -9°C° 0 mm 2 mps 671 mmHg 71%
    20:00 -10°C° 0 mm 3 mps 671 mmHg 71%
    21:00 -12°C° 0 mm 3 mps 670 mmHg 71%
    22:00 -12°C° 0 mm 3 mps 670 mmHg 70%
    23:00 -10°C° 0 mm 2 mps 670 mmHg 72%

    23 January, Wednesday

    Time Temperature Precipitation Wind Pressure Humidity
    00:00 -10°C° 0 mm 2 mps 669 mmHg 73%
    01:00 -10°C° 0 mm 2 mps 669 mmHg 74%
    02:00 -10°C° 0 mm 2 mps 668 mmHg 75%
    03:00 -9°C° 0 mm 1 mps 668 mmHg 75%
    04:00 -9°C° 0 mm 1 mps 667 mmHg 75%
    05:00 -9°C° 0 mm 1 mps 667 mmHg 76%
    06:00 -9°C° 0 mm 1 mps 666 mmHg 76%
    07:00 -9°C° 0 mm 1 mps 666 mmHg 77%
    08:00 -8°C° 0.2 mm 0 mps 665 mmHg 81%
    09:00 -7°C° 0.2 mm 0 mps 665 mmHg 85%
    10:00 -6°C° 0.2 mm 0 mps 665 mmHg 89%
    11:00 -4°C° 0.4 mm 1 mps 664 mmHg 89%
    12:00 -4°C° 0.4 mm 1 mps 664 mmHg 90%
    13:00 -3°C° 0.4 mm 1 mps 663 mmHg 91%
    14:00 -3°C° 0.6 mm 1 mps 663 mmHg 92%
    15:00 -3°C° 0.6 mm 1 mps 663 mmHg 94%
    16:00 -3°C° 0.6 mm 1 mps 662 mmHg 95%
    17:00 -4°C° 0.6 mm 1 mps 662 mmHg 95%
    18:00 -4°C° 0.6 mm 1 mps 663 mmHg 96%
    19:00 -6°C° 0.6 mm 1 mps 663 mmHg 96%
    20:00 -7°C° 0.1 mm 0 mps 663 mmHg 96%
    21:00 -8°C° 0.1 mm 0 mps 663 mmHg 95%
    22:00 -9°C° 0.1 mm 0 mps 663 mmHg 95%
    23:00 -8°C° 0.1 mm 0 mps 663 mmHg 94%
    Show more